AO-07 1 07530U 74089B 16336.00409366 -.00000044 00000-0 34120-5 0 9994 2 07530 101.6011 302.8425 0012148 348.4191 61.5023 12.53624363924026 FO-29 1 24278U 96046B 16335.77016279 .00000014 00000-0 47711-4 0 9994 2 24278 098.5835 239.1703 0351167 131.2007 231.9978 13.53072033001798 RS-22 1 27939U 03042A 16336.87492038 .00000156 00000-0 36447-4 0 9999 2 27939 97.9110 122.3351 0014083 129.2521 24.6203 14.66494575704395 AO-73 1 39444U 13066AE 16336.09143876 .00000423 00000-0 59276-4 0 9999 2 39444 97.6597 22.4503 0058451 193.7826 166.1795 14.81268753162283 EO-79 1 40025U 14033R 16336.68897719 .00000536 00000-0 64075-4 0 9996 2 40025 97.9198 242.0105 0011420 230.9360 129.0841 14.88233503133112 XW-2A 1 40903U 15049E 16336.87796803 .00002752 00000-0 76574-4 0 9991 2 40903 97.4368 354.1213 0013677 252.7027 107.2721 15.37646150 67318 XW-2C 1 40906U 15049H 16336.79875907 .00001034 00000-0 60242-4 0 9995 2 40906 97.4539 340.3252 0015577 172.0887 188.0594 15.14101055 66364 LILACSAT-2 1 40908U 15049K 16336.40713246 .00000575 00000-0 36259-4 0 9992 2 40908 97.4606 339.6970 0016545 168.6657 191.4950 15.12853269 66263 UO-11 1 14781U 84021B 16336.18626472 .00000155 00000-0 25510-4 0 9999 2 14781 97.7273 22.8752 0009748 123.4393 236.7755 14.82832794761004 LO-19 1 20442U 90005G 16336.80200787 .00000013 00000-0 20903-4 0 9999 2 20442 98.5582 269.5070 0012141 16.2808 343.8764 14.32840652403359 AO-27 1 22825U 93061C 16336.87635679 -.00000001 00000-0 17140-4 0 9997 2 22825 98.7839 294.3511 0008261 180.6534 179.4638 14.29978319209208 IO-26 1 22826U 93061D 16336.88263834 .00000009 00000-0 20832-4 0 9998 2 22826 98.7781 294.4623 0008953 171.8420 188.2909 14.30305200209376 GO-32 1 25397U 98043D 16335.92516634 -.00000006 00000-0 16101-4 0 9994 2 25397 098.5873 276.6838 0001018 159.6142 200.5077 14.23609577955369 NO-44 1 26931U 01043C 16335.95757155 .00000019 00000-0 39036-4 0 9996 2 26931 067.0516 242.6445 0005685 278.4519 081.5938 14.30437341791927 SO-50 1 27607U 02058C 16336.60820710 .00000083 00000-0 32701-4 0 9998 2 27607 64.5561 9.3004 0048066 176.5397 183.6048 14.75255559749962 CO-55 1 27844U 03031E 16336.00553150 .00000072 00000-0 52427-4 0 9993 2 27844 98.6916 341.8938 0009422 194.8089 165.2814 14.21998169696152 CO-57 1 27848U 03031J 16335.95196889 .00000055 00000-0 44999-4 0 9998 2 27848 98.7012 342.0122 0009194 204.0563 156.0186 14.21618353696030 CO-65 1 32785U 08021C 16336.85170906 .00000364 00000-0 45533-4 0 9998 2 32785 97.5858 3.9484 0014691 101.2208 259.0661 14.87742885465550 PRISM 1 33493U 09002B 16336.71779466 .00001150 00000-0 10985-3 0 9992 2 33493 98.1922 204.5219 0015936 17.9833 342.1947 14.95331028426269 TISAT-1 1 36799U 10035E 16336.27252025 .00000830 00000-0 91804-4 0 9994 2 36799 98.0442 89.3029 0011275 255.1418 104.8551 14.90129631346302 ALMASAT-1 1 38078U 12006B 16335.92315883 .00019586 36746-5 23929-3 0 9990 2 38078 069.4478 302.0908 0351491 221.3563 136.0501 15.12342357254711 DUCHIFAT-1 1 40021U 14033M 16336.29231832 .00000818 00000-0 91478-4 0 9997 2 40021 97.9240 243.1174 0011953 229.9226 130.0944 14.89622446133131 NANOSATCBR1 1 40024U 14033Q 16335.80410578 .00000614 00000-0 71243-4 0 9994 2 40024 97.9208 241.8092 0011194 231.8162 128.2047 14.88986276133024 DTUSAT-2 1 40030U 14033W 16336.71177829 .00000488 00000-0 59477-4 0 9995 2 40030 97.9170 241.3383 0010958 224.1003 135.9340 14.87861278133094 ANTELSAT 1 40034U 14033AA 16336.75981893 .00000249 00000-0 45078-4 0 9994 2 40034 97.8822 220.5027 0058454 206.5379 153.2834 14.73554581131852 MET-2/21 1 22782U 93055A 16335.75689961 .00000030 00000-0 14348-4 0 9999 2 22782 82.5483 181.0555 0021277 267.7528 140.6974 13.83794534174251 NOAA-15 1 25338U 98030A 16336.52740813 .00000031 00000-0 31880-4 0 9998 2 25338 98.7843 341.0294 0011551 63.1284 297.1074 14.25766266964837 NOAA-18 1 28654U 05018A 16336.54104559 .00000034 00000-0 44225-4 0 9999 2 28654 99.1943 347.8078 0013416 265.7278 94.2360 14.12316606594351 NOAA-19 1 33591U 09005A 16336.51913684 .00000102 00000-0 80587-4 0 9996 2 33591 99.0643 294.8508 0014905 106.7318 253.5490 14.12131285402759 HUBBLE 1 20580U 90037B 16336.32949074 .00000651 00000-0 29351-4 0 9997 2 20580 28.4695 234.7638 0002730 201.3268 95.1586 15.08609452260370 ISS 1 25544U 98067A 16336.45653869 .00002848 00000-0 50901-4 0 9996 2 25544 51.6437 303.9435 0006034 277.7673 227.7990 15.53767781 31007 CO-58 1 28895U 05043F 16335.46926450 .00000239 00000-0 54932-4 0 9999 2 28895 97.8432 141.1898 0017937 55.3551 304.9340 14.63305788591429 AAUSAT2 1 32788U 08021F 16336.08199280 .00000574 00000-0 59590-4 0 9993 2 32788 97.5840 13.2944 0013510 75.3346 284.9371 14.93572662466100 DO-64 1 32789U 08021G 16336.22671516 .00001997 00000-0 14815-3 0 9997 2 32789 97.5876 32.4356 0014435 60.1276 300.1382 15.04131710467103 CO-66 1 32791U 08021J 16336.15043525 .00000433 00000-0 50306-4 0 9995 2 32791 97.5857 7.0041 0015080 91.8537 268.4408 14.90014100465652 RS-30 1 32953U 08025A 16336.85388264 .00000026 00000-0 11659-3 0 9993 2 32953 82.5032 2.3819 0018752 0.0881 0.0199 12.43073319386905 JUGNU 1 37839U 11058B 16336.01345999 .00000333 00000-0 35800-4 0 9993 2 37839 19.9602 212.0796 0019062 158.9230 333.7916 14.12564479265640 SRMSAT 1 37841U 11058D 16336.91143451 .00000325 00000-0 33371-4 0 9996 2 37841 19.9715 244.2620 0011963 75.0115 347.2427 14.10559755265392 AO-71 1 37854U 11061E 16335.89582507 .00001980 00000-0 11524-3 0 9992 2 37854 101.7018 102.7107 0170074 301.4388 057.0291 15.03202108276686 HRBE 1 37855U 11061F 16335.90067169 .00002131 00000-0 12096-3 0 9991 2 37855 101.7134 100.6645 0183637 306.7094 051.7367 15.02139798276544 HORYU-2 1 38340U 12025D 16335.90316059 .00000334 00000-0 57573-4 0 9990 2 38340 98.3682 326.9525 0011234 196.9492 163.1342 14.75197635244052 RS-40 1 38735U 12041C 16336.78165774 .00000016 00000-0 45652-4 0 9991 2 38735 82.4769 87.2790 0017659 99.3992 260.9085 12.42574351197186 BEESAT-3 1 39134U 13015E 16336.62636530 .00001835 00000-0 10211-3 0 9995 2 39134 64.8692 143.6847 0019959 303.2343 56.6869 15.16944128199506 BEESAT-2 1 39136U 13015G 16335.91212292 .00001444 00000-0 88347-4 0 9995 2 39136 064.8689 154.0443 0020747 305.9700 053.9500 15.14403365198855 ZACUBE-1 1 39417U 13066B 16336.69173112 .00000370 00000-0 53529-4 0 9997 2 39417 97.6583 22.2181 0059225 194.3497 165.6036 14.80565136163556 TRITON-1 1 39427U 13066M 16336.85019296 .00000265 00000-0 51064-4 0 9993 2 39427 97.6517 359.3177 0113144 260.6322 98.2077 14.67332097162107 GOMX-1 1 39430U 13066Q 16336.83689096 .00000329 00000-0 69563-4 0 9990 2 39430 97.6635 344.9843 0151045 306.6120 52.1266 14.58742320161158 LO-74 1 39440U 13066AA 16336.14128593 .00000309 00000-0 50677-4 0 9999 2 39440 97.6534 12.4794 0080049 221.9083 137.5983 14.75315728162894 SPROUT 1 39770U 14029E 16336.73925440 .00001479 00000-0 17608-3 0 9991 2 39770 97.8741 72.1512 0007994 254.2643 105.7669 14.85842830136813 EO-80 1 40032U 14033Y 16336.67804626 .00000495 00000-0 60277-4 0 9992 2 40032 97.9178 241.3128 0010892 224.5618 135.4723 14.87796322133079 VELOX-1 1 40057U 14034E 16336.68750621 .00000577 00000-0 89653-4 0 9996 2 40057 98.1916 67.9944 0010699 337.5326 22.5417 14.76930816130601 DAURIA DX 1 1 40071U 14037C 16336.70954064 .00000247 00000-0 39339-4 0 9995 2 40071 98.3320 74.0891 0008149 336.2676 23.8167 14.80926026129741 UKUBE-1 1 40074U 14037F 16336.85699873 .00000573 00000-0 77115-4 0 9994 2 40074 98.3385 77.1195 0004091 344.4711 15.6368 14.83303378129923 HODOYOSHI-1 1 40299U 14070B 16336.70950568 .00001301 00000-0 60203-4 0 9995 2 40299 97.4210 56.3487 0015128 67.0889 84.0151 15.21834967114907 CHUBUSAT-1 1 40300U 14070C 16336.74370821 .00001579 00000-0 75178-4 0 9994 2 40300 97.4147 54.1328 0022609 73.2894 25.9581 15.20395370114782 QSAT-EOS 1 40301U 14070D 16336.45576652 .00003115 00000-0 13697-3 0 9998 2 40301 97.4092 53.4429 0030172 72.2671 343.6607 15.22225403114748 FIREBIRD FU3 1 40377U 15003B 16336.09607402 .00002530 00000-0 11450-3 0 9991 2 40377 99.1042 114.9668 0139011 298.3549 60.3718 15.14011814101023 FIREBIRD FU4 1 40378U 15003C 16336.81790565 .00003134 00000-0 14040-3 0 9994 2 40378 99.1045 115.8525 0139156 295.8743 62.8191 15.14035888101138 GRIFEX 1 40379U 15003D 16336.83552794 .00001991 00000-0 95517-4 0 9995 2 40379 99.1050 114.4514 0144104 301.1170 57.5985 15.11920489101052 NO-84 1 40654U 15025D 16336.35988109 .00008493 00000-0 16948-3 0 03005 2 40654 054.9978 038.1750 0197089 129.3225 232.5333 15.29620923049581 NO-83 1 40655U 15025E 16336.34895085 .00014793 00000-0 25340-3 0 03359 2 40655 054.9846 025.1115 0172282 135.9571 225.5331 15.36684971049741 DEORBITSAIL 1 40719U 15032E 16335.75476248 .00000711 00000-0 11097-3 0 9993 2 40719 97.9990 225.7628 0017876 62.8906 297.4124 14.75816532 75056 NUDT-PHONESAT 1 40900U 15049B 16336.38830417 .00002912 00000-0 14541-3 0 9997 2 40900 97.4442 341.2971 0014161 188.7046 171.3944 15.18195533 66438 XW-2D 1 40907U 15049J 16336.85977723 .00001111 00000-0 64341-4 0 9992 2 40907 97.4506 340.2028 0014999 169.9295 190.2241 15.14175471 66372 XW-2F 1 40910U 15049M 16336.83125273 .00001619 00000-0 90363-4 0 9995 2 40910 97.4533 340.5656 0015944 168.7922 191.3668 15.14855717 66262 XW-2B 1 40911U 15049N 16336.86164429 .00001087 00000-0 63082-4 0 9992 2 40911 97.4553 340.4753 0014897 170.1458 190.0068 15.14147938 66279 DCBB 1 40912U 15049P 16336.30678757 .00002200 00000-0 11481-3 0 9999 2 40912 97.4522 341.3168 0016101 164.8735 321.5991 15.16879980 66282 TW-1C 1 40926U 15051B 16336.87716611 .00008334 00000-0 21321-3 0 9999 2 40926 97.2557 12.1235 0013512 157.1614 325.0581 15.39582901 66536 TW-1A 1 40928U 15051D 16336.87034927 .00003398 00000-0 10347-3 0 9995 2 40928 97.2516 10.1727 0012961 178.4376 303.7589 15.34599540 66426 IO-86 1 40931U 15052B 16336.39803811 .00000613 00000-0 -36967-5 0 9999 2 40931 5.9984 202.9867 0013672 327.6010 32.3681 14.76498750 63683 GomX-3 1 40949U 98067HA 16292.18357804 .08527750 12374-4 77882-3 0 9992 2 40949 51.6055 106.7696 0006699 286.1344 73.8944 16.38002265 59645 LQSat 1 40958U 15057A 16336.70157045 .00000116 00000-0 25849-4 0 9992 2 40958 98.0004 49.2593 0018053 342.7760 17.2833 14.72927067 62048 AO-85 1 40967U 15058D 16336.37213109 .00000751 00000-0 10325-3 0 03294 2 40967 064.7778 098.8416 0183310 150.2104 210.9582 14.75257005047938 ATHENOXAT-1 1 41168U 15077C 16336.09254630 .00003211 00000-0 14824-3 0 9997 2 41168 14.9862 175.7537 0012138 153.3186 124.7326 15.10824525 53027 ChubuSat-2 1 41338U 16012B 16335.87177050 .00000570 00000-0 38282-4 0 9991 2 41338 31.0040 291.6249 0014062 256.4091 103.4978 14.99584188 43198 ChubuSat-3 1 41339U 16012C 16336.89276367 .00000643 00000-0 43884-4 0 9991 2 41339 31.0138 284.6153 0013964 272.8703 87.0345 14.99803192 43324 Horyu-4 1 41340U 16012D 16336.21299707 .00000883 00000-0 61856-4 0 9997 2 41340 31.0058 287.6467 0014331 272.2472 87.6522 15.00340061 43253 OUFTI-1 1 41458U 16025C 16336.00969975 .00003975 00000-0 21900-3 0 9999 2 41458 98.2057 356.1288 0177270 231.1349 127.3945 15.02222861 32819 e-st@r-II 1 41459U 16025D 16335.88136200 .00003734 00000-0 20612-3 0 9994 2 41459 098.2038 355.9702 0177965 231.8379 126.6697 15.02124003032790 AAUSAT4 1 41460U 16025E 16336.83811939 .00002366 00000-0 13441-3 0 9993 2 41460 98.1974 357.0383 0169748 227.3776 131.2994 15.02670242 32949 MinXSS 1 41474U 98067HU 16335.76409143 .00053888 00000-0 45105-3 0 9992 2 41474 51.6436 297.3967 0004266 71.9740 288.1722 15.69432595 30974 CADRE 1 41475U 98067HV 16336.36237303 .00227160 00000-0 87516-3 0 9995 2 41475 51.6336 287.7654 0007307 106.0069 254.1741 15.86106481 31159 NODES 1 1 41477U 98067HX 16336.41547211 .00027305 00000-0 27540-3 0 9995 2 41477 51.6379 296.4521 0003680 61.8638 298.2729 15.65152958 30957 NODES 2 1 41478U 98067HY 16336.35934982 .00028789 00000-0 29150-3 0 9990 2 41478 51.6378 296.8254 0003593 62.1397 297.9962 15.65024867 30944 LO-87 1 41557U 16033B 16336.39496005 .00002151 00000-0 85736-4 0 9992 2 41557 97.4833 49.8266 0014215 351.4725 8.6269 15.26245957 28257 NuSat2 1 41558U 16033C 16336.80511711 .00002146 00000-0 85885-4 0 9990 2 41558 97.4859 50.2583 0013629 348.9327 11.1609 15.26116679 28313 Lapan A3 1 41603U 16040E 16336.79432876 .00000252 00000-0 15239-4 0 9993 2 41603 97.4910 34.8204 0015028 46.6131 92.4021 15.19210747 24689 Swayam 1 41607U 16040J 16336.15167744 .00001944 00000-0 93533-4 0 9998 2 41607 97.4887 34.1929 0015910 52.5801 307.6879 15.19884391 24519 Pratham 1 41783U 16059A 16336.13659544 .00000090 00000-0 27054-4 0 9991 2 41783 98.1964 33.2612 0034778 62.7769 297.6969 14.62784827 9641 OBJECT B 1 41784U 16059B 16336.73603066 .00000206 00000-0 49163-4 0 9990 2 41784 98.1963 33.8939 0033141 60.8895 299.5618 14.63148972 9706 OBJECT C 1 41785U 16059C 16336.73242255 .00000033 00000-0 15754-4 0 9997 2 41785 98.1962 33.8967 0032675 59.8909 300.5523 14.63214523 9706 OBJECT D 1 41786U 16059D 16336.72147713 .00000121 00000-0 30820-4 0 9999 2 41786 98.2240 34.4204 0001119 86.9794 273.1533 14.66309548 9723 OBJECT E 1 41787U 16059E 16336.72130346 .00000136 00000-0 35538-4 0 9991 2 41787 98.1963 33.9120 0031583 59.7142 300.7176 14.63466689 9704 OBJECT F 1 41788U 16059F 16336.30302591 .00000181 00000-0 43973-4 0 9991 2 41788 98.1960 33.5139 0030943 63.5235 296.9127 14.63646857 9645 AlSat 1N 1 41789U 16059G 16336.83474732 .00000192 00000-0 45720-4 0 9991 2 41789 98.1969 34.0790 0029635 56.2049 304.1953 14.63982806 9738 ScatSat 1 41790U 16059H 16336.16015995 .00000039 00000-0 20894-4 0 9996 2 41790 98.0918 28.2760 0011976 40.6567 319.5560 14.50110805 9569 OBJECT J 1 41791U 16059J 16335.81717632 .00000066 00000-0 23297-4 0 9995 2 41791 098.2676 033.1715 0043883 069.7849 290.8062 14.60748942009585 OBJECT K 1 41792U 16059K 16335.80452669 .00000463 00000-0 96927-4 0 9992 2 41792 98.1972 33.0751 0028839 64.0033 296.4135 14.64115599 9572 TY-1 1 41844U 16066D 16336.88621709 -.00000070 00000-0 00000 0 0 9997 2 41844 97.4063 341.1184 0014664 207.5716 268.5913 15.21491639 3337 CAS-2T 1 41845U 16066E 16336.74717800 -.00000066 00000-0 00000 0 0 9996 2 41845 98.7821 341.6261 0367875 114.0696 249.9436 14.37660124 3122 Pegasus-1 1 41846U 16066F 16336.76044341 -.00000065 00000-0 00000 0 0 9991 2 41846 98.7839 341.6139 0371168 114.6916 249.3387 14.36786773 3124 /EX
